Regional Weather Roundup
Issued by NWS

Home | Current Version | Previous Version | Text Only | Print | Product List | Glossary On
Versions: 1 2 3 4 5 6 7 8 9 10 11 12 13 14 15 16 17 18 19 20 21 22 23 24 25 26 27 28 29 30 31 32 33 34 35 36 37 38 39 40 41 42 43 44 45 46 47 48 49 50
000
ASUS43 KLMK 262110
RWRKY
KENTUCKY REGIONAL WEATHER ROUNDUP
NATIONAL WEATHER SERVICE LOUISVILLE KY
500 PM EDT TUE JUL 26 2016

NOTE "FAIR" INDICATES FEW OR NO CLOUDS BELOW 12,000 FEET
WITH NO SIGNIFICANT WEATHER AND/OR OBSTRUCTIONS TO VISIBILITY.

KYZ001>023-026-027-061>063-070>075-262200-
WESTERN AND SOUTH CENTRAL KENTUCKY

CITY           SKY/WX    TMP DP  RH WIND       PRES   REMARKS
PADUCAH        CLOUDY    85  73  67 NW18G33   29.98R HX  91
HENDERSON      CLOUDY    86  75  70 W5        29.96R HX  95
OWENSBORO      MOSUNNY   92  77  61 W7        29.97F HX 105
HOPKINSVILLE   NOT AVBL
BOWLING GREEN  MOSUNNY   93  70  46 VRB5      29.96F HX  99
GLASGOW        MOSUNNY   93  71  48 W6        29.97F HX 100
$$

KYZ024-025-028>034-038-045-046-053-262200-
NORTH CENTRAL KENTUCKY

CITY           SKY/WX    TMP DP  RH WIND       PRES   REMARKS
LOUISVILLE/SDF PTSUNNY   92  71  50 W7        29.95F HX  98
LOUISVILLE/LOU MOSUNNY   91  74  57 N6        29.96F HX 100
FORT KNOX      NOT AVBL
$$

KYZ035>037-039>044-047>052-055>060-089>105-262200-
NORTHEAST KENTUCKY

CITY           SKY/WX    TMP DP  RH WIND       PRES   REMARKS
LEXINGTON      LGT RAIN  87  73  62 N13       30.00S HX  94
COVINGTON      NOT AVBL
FRANKFORT      PTSUNNY   87  74  64 N8        29.97F HX  95
$$

KYZ054-064>069-076>088-106>120-262200-
SOUTHEAST KENTUCKY

CITY           SKY/WX    TMP DP  RH WIND       PRES   REMARKS
JACKSON        SUNNY     89  73  59 CALM      30.02F HX  97
LONDON         MOSUNNY   89  68  49 SW5       30.01F HX  93
SOMERSET       SUNNY     90  70  51 S8        30.00F HX  95
MIDDLESBORO    MOSUNNY   89  74  60 NW3       30.02S HX  99
MONTICELLO     PTCLDY   N/A N/A N/A W15       30.01F
$$





USA.gov is the U.S. government's official web portal to all federal, state and local government web resources and services.